Flag for U.S.A. Weather past 2 weeks in Casper, Wyoming, U.S.A.

Now
82 °F

Clear.


Feels Like: 80 °F
Forecast: 66 / 94 °F
Wind: 14 mph from South

Location: Natrona County International Airport

Current Time: Jul 24, 2014 at 1:08:57 AM

Latest Report: Jul 23, 2014 at 11:53 PM


Visibility: 10 mi

Pressure: 29.81 "Hg

Humidity: 21%

Dew point: 38 °F

Location of CasperLocation

Historic Weather in Casper — Graph

°F

Casper temperature yesterday

Maximum temperature yesterday: 96 °F (at 1:53 PM)
Minimum temperature yesterday: 54 °F (at 5:53 AM)
Average temperature yesterday: 78 °F

Past Weeks' High & Low Weather Summary

 TemperatureHumidityPressure
High96 °F (Jul 23, 1:53 PM)97% (Jul 16, 3:53 AM)30.18 "Hg (Jul 16, 3:53 AM)
Low49 °F (Jul 17, 4:53 AM)8% (Jul 19, 3:53 PM)29.67 "Hg (Jul 10, 2:53 AM)
Average71 °F48%29.92 "Hg
* Reported Jul 8 11:53 PM — Jul 23 11:53 PM, Casper, Weather by CustomWeather, © 2014

Note: Actual official high and low records may vary slightly from our data, if they occured in-between our weather recording intervals... More about our weather records

Advertising

Casper weather history for previous 24 hours

 ConditionsComfort  
Time TempWeatherWind HumidityBarometerVisibility
11:53 PM
Jul 23
82 °FClear.14 mph21%29.81 "Hg10 mi
10:53 PM80 °FClear.12 mph24%29.83 "Hg10 mi
9:53 PM83 °FClear.7 mph19%29.84 "Hg10 mi
8:53 PM86 °FSunny.14 mph17%29.85 "Hg10 mi
7:53 PM88 °FSunny.18 mph16%29.86 "Hg10 mi
6:53 PM91 °FSunny.8 mph20%29.84 "Hg10 mi
5:53 PM94 °FSunny.12 mph17%29.85 "Hg10 mi
4:53 PM95 °FSunny.5 mph13%29.87 "Hg10 mi
3:53 PM96 °FSunny.7 mph11%29.89 "Hg10 mi
2:53 PM95 °FSunny.9 mph13%29.91 "Hg10 mi
1:53 PM96 °FSunny.8 mph18%29.94 "Hg10 mi
12:53 PM90 °FSunny.N/A28%29.97 "Hg10 mi
11:53 AM84 °FSunny.6 mph38%30.01 "Hg10 mi
10:53 AM78 °FSunny.6 mph48%30.06 "Hg10 mi
9:53 AM74 °FSunny.No wind56%30.07 "Hg10 mi
8:53 AM68 °FSunny.No wind70%30.09 "Hg10 mi
7:53 AM64 °FSunny.3 mph78%30.09 "Hg10 mi
6:53 AM59 °FSunny.3 mph90%30.09 "Hg9 mi
5:53 AM54 °FClear.5 mph97%30.11 "Hg8 mi
4:53 AM58 °FClear.3 mph93%30.10 "Hg10 mi
3:53 AM58 °FClear.5 mph87%30.09 "Hg10 mi
2:53 AM62 °FClear.9 mph78%30.08 "Hg10 mi
1:53 AM64 °FClear.10 mph70%30.09 "Hg10 mi
Weather by CustomWeather, © 2014

See weather overviewHow to use our weather pages